Home > Weather > Lexington > Past weeks

Flag for USA Weather for the Past 2 Weeks in Lexington, Virginia, USA

Now
42 °F

Low clouds.


Feels Like: 35 °F
Forecast: 51 / 63 °F
Wind: 12 mph from Northwest

Location: Hot Springs / Ingalls

Current Time: May 6, 2016 at 5:31:20 AM

Latest Report: May 6, 2016 at 4:55 AM


Visibility: 7 mi

Pressure: 29.68 "Hg

Humidity: 100%

Dew Point: 42 °F

Location of LexingtonLocation

Historic Weather in Lexington — Graph

°F

Lexington Temperature Yesterday

Maximum temperature yesterday: 45 °F (at 12:15 AM)
Minimum temperature yesterday: 40 °F (at 1:15 PM)
Average temperature yesterday: 42 °F

High & Low Weather Summary for the Past Weeks

 TemperatureHumidityPressure
High75 °F (Apr 26, 4:15 PM)100% (Apr 22, 10:55 AM)30.17 "Hg (Apr 22, 10:55 AM)
Low40 °F (May 5, 1:15 PM)28% (Apr 25, 6:15 PM)29.59 "Hg (May 5, 5:35 AM)
Average56 °F79%29.95 "Hg
* Reported Apr 21 4:15 AM — May 6 4:15 AM, Lexington, Weather by CustomWeather, © 2016

Note: Actual official high and low records may vary slightly from our data, if they occured in-between our weather recording intervals... More about our weather records

Advertising

Lexington Weather History for the Previous 24 Hours

Scroll right to see more
 ConditionsComfort  
Time TempWeatherWind HumidityBarometerVisibility
4:15 AM
Fri, May 6
42 °FLight rain. Low clouds.9 mph100%29.68 "Hg1 mi
3:55 AM42 °FLight rain. Low clouds.10 mph100%29.68 "Hg1 mi
3:35 AM42 °FFog.9 mph100%29.68 "Hg1 mi
3:15 AM42 °FFog.10 mph100%29.68 "Hg4 mi
2:55 AM42 °FFog.12 mph100%29.68 "Hg1 mi
2:35 AM42 °FFog.9 mph100%29.68 "Hg1 mi
2:15 AM42 °FFog.8 mph100%29.69 "Hg0 mi
1:55 AM42 °FFog.10 mph100%29.69 "Hg1 mi
1:15 AM42 °FFog.8 mph100%29.69 "Hg1 mi
12:55 AM42 °FLight rain. Low clouds.9 mph100%29.69 "Hg0 mi
12:35 AM42 °FFog.10 mph100%29.69 "Hg1 mi
12:15 AM42 °FFog.12 mph100%29.69 "Hg1 mi
11:55 PM
Thu, May 5
42 °FFog.12 mph100%29.69 "Hg1 mi
11:35 PM42 °FFog.10 mph100%29.69 "Hg0 mi
11:15 PM42 °FLight rain. Low clouds.9 mph100%29.69 "Hg0 mi
10:55 PM42 °FLight rain. Low clouds.9 mph100%29.69 "Hg0 mi
10:35 PM42 °FLight rain. Low clouds.9 mph100%29.69 "Hg0 mi
10:15 PM43 °FFog.9 mph100%29.69 "Hg0 mi
9:55 PM43 °FLight rain. Low clouds.9 mph100%29.69 "Hg0 mi
9:35 PM43 °FLight rain. Low clouds.9 mph100%29.69 "Hg0 mi
9:15 PM43 °FRain. Low clouds.9 mph100%29.68 "Hg0 mi
8:55 PM43 °FLight rain. Low clouds.9 mph100%29.68 "Hg0 mi
8:35 PM43 °FLight rain. Low clouds.8 mph100%29.67 "Hg0 mi
8:15 PM43 °FFog.8 mph100%29.67 "Hg0 mi
7:55 PM43 °FLight snow. Low clouds.7 mph100%29.66 "Hg0 mi
7:15 PM43 °FLight rain. Low clouds.10 mph100%29.65 "Hg0 mi
6:55 PM43 °FLight rain. Low clouds.6 mph100%29.64 "Hg0 mi
6:35 PM43 °FLight rain. Low clouds.7 mph100%29.64 "Hg0 mi
6:15 PM43 °FLight rain. Low clouds.9 mph100%29.64 "Hg0 mi
5:55 PM43 °FThundershowers. Low clouds.7 mph100%29.63 "Hg0 mi
5:15 PM43 °FRain. Low clouds.12 mph100%29.63 "Hg0 mi
4:55 PM42 °FLight rain. Low clouds.9 mph100%29.63 "Hg0 mi
4:35 PM42 °FLight rain. Low clouds.12 mph100%29.63 "Hg0 mi
4:15 PM42 °FLight rain. Low clouds.10 mph100%29.63 "Hg0 mi
3:55 PM42 °FLight rain. Low clouds.10 mph100%29.62 "Hg0 mi
3:15 PM42 °FLight rain. Low clouds.10 mph100%29.63 "Hg0 mi
2:55 PM42 °FLight rain. Low clouds.13 mph100%29.63 "Hg0 mi
2:35 PM41 °FLight rain. Low clouds.10 mph100%29.62 "Hg0 mi
2:15 PM40 °FLight rain. Low clouds.13 mph100%29.62 "Hg0 mi
1:55 PM40 °FLight rain. Low clouds.9 mph100%29.62 "Hg0 mi
1:15 PM40 °FLight rain. Low clouds.9 mph100%29.63 "Hg1 mi
12:55 PM40 °FRain. Low clouds.8 mph100%29.63 "Hg0 mi
12:35 PM40 °FLight rain. Low clouds.10 mph100%29.64 "Hg2 mi
12:15 PM40 °FRain. Mostly cloudy.12 mph100%29.64 "Hg10 mi
11:55 AM40 °FLight rain. Low clouds.12 mph100%29.64 "Hg10 mi
11:35 AM40 °FLight rain. Low clouds.12 mph100%29.64 "Hg10 mi
11:15 AM41 °FDrizzle. Mostly cloudy.10 mph100%29.63 "Hg10 mi
10:55 AM41 °FDrizzle. Cloudy.12 mph100%29.63 "Hg10 mi
10:35 AM42 °FRain. Cloudy.12 mph100%29.63 "Hg10 mi
10:15 AM42 °FMore clouds than sun.10 mph100%29.63 "Hg10 mi
9:55 AM42 °FDrizzle. More clouds than sun.10 mph100%29.63 "Hg10 mi
9:35 AM42 °FMostly cloudy.9 mph100%29.63 "Hg10 mi
9:15 AM42 °FMostly cloudy.13 mph100%29.63 "Hg10 mi
8:55 AM42 °FMostly cloudy.8 mph100%29.62 "Hg10 mi
8:15 AM42 °FDrizzle. More clouds than sun.7 mph100%29.62 "Hg4 mi
7:55 AM42 °FMore clouds than sun.7 mph100%29.61 "Hg10 mi
7:35 AM42 °FFog.8 mph100%29.61 "Hg0 mi
7:15 AM42 °FFog.8 mph100%29.61 "Hg0 mi
6:55 AM42 °FFog.7 mph100%29.60 "Hg1 mi
6:35 AM42 °FFog.7 mph100%29.60 "Hg1 mi
6:15 AM42 °FMostly cloudy.6 mph100%29.59 "Hg10 mi
5:55 AM42 °FMostly cloudy.7 mph100%29.59 "Hg10 mi
5:35 AM42 °FThundershowers. Overcast.5 mph100%29.59 "Hg10 mi
5:15 AM42 °FThundershowers. Overcast.6 mph100%29.60 "Hg7 mi
Weather by CustomWeather, © 2016

See weather overviewHow to use our weather pages